Weather in Porto Seguro

Brazil     16°27′04″S   39°03′53″W
В апреле 2022 года жителям России запретили посещать сайт meteo.paraplan.net по решению Генеральной прокуратуры. Аудитория сайта уменьшилась в 10 раз. Владельцы сайта не видят смысла в поддержке погодного сервера в таких условиях. Сайт будет закрыт в октябре.
temp.,
°C
wind,
m/s
gust,
m/s
humid.,
%
clouds,
%
prec.,
mm/h
press.,
hPa
HPBL,
m
25 september, sun
sun2500:00+23sse91088100 1.7 1018778
03:00+23sse91089100 3.9 1017775
06:00+23sse91089100 1.8 1018769
09:00+23sse101088100 2.7 1020737
12:00+23sse91088100 1.4 1019757
15:00+23sse8888100 2.6 1017659
18:00+23sse798797 0.9 1018706
21:00+24se788699 1.9 1019695
26 september, mon
mon2600:00+24se798782 2.0 1018658
03:00+23se7890100 5.7 1016553
06:00+23se6891100 6.9 1018571
09:00+24e448354 11.4 1020330
12:00+25e44776 0.7 1019490
15:00+25e44785 0.8 1016544
18:00+25ene34812 0.0 1017404
21:00+24n238418 0.3 1019233
27 september, tue
tue2700:00+23nnw348666 0.2 1018235
03:00+22wnw22885 0.4 1016151
06:00+22w22885 0.4 1018122
09:00+23ese11836 0.4 1020215
12:00+24e45829 0.1 1018391
15:00+25ne66791 0.1 1016586
18:00+24ne46820 0.0 1017476
21:00+24ene46840 0.1 1018474
28 september, wed
wed2800:00+24nne47830 0.4 1017458
03:00+24ne46840 0.4 1015509
06:00+23nne35843 0.8 1017333
09:00+25ne56770 1.0 1018722
12:00+24ne67800 0.0 1017554
15:00+24ne67800 0.0 1014532
18:00+24ne57830 0.0 1015490
21:00+24ne67855 0.0 1017612
29 september, thu
thu2900:00+24ne688482 0.1 1016618
03:00+24nne568353 0.1 1015652
06:00+23n45861 0.0 1016410
09:00+24ne56781 0.0 1017683
12:00+24ne88790 0.0 1015491
15:00+24ne911840 0.0 1013497
18:00+24ne710860 0.0 1015492
21:00+24ne79880 0.0 1016568